Weather in Ozinki

Russia / Saratov Oblast     51°11′56″N   49°43′45″E
temp.,
°C
wind,
m/s
gust,
m/s
humid.,
%
clouds,
%
prec.,
mm/h
press.,
hPa
HPBL,
m
22 january, sat
sat2201:00−8sse71396100 0.1 1021397
04:00−8sse71494100 0.1 1021370
07:00−8sse91693100 0.0 1020368
10:00−8sse81692100 0.0 1022388
13:00−6sse81592100 0.0 1022391
16:00−6sse71492100 0.0 1022425
19:00−6se81395100 0.0 1023351
22:00−5sse81496100 0.0 1024470
23 january, sun
sun2301:00−6se71396100 0.0 1025408
04:00−7se61195100 0.1 1026277
07:00−9se61292100 0.0 1027224
10:00−9se61288100 0.0 1028236
13:00−7se61384100 0.0 1029306
16:00−7se61283100 0.0 1030272
19:00−8ese61380100 0.0 1031250
22:00−9ese61381100 0.0 1032239
24 january, mon
mon2401:00−8ese51284100 0.0 1033247
04:00−9ese51188100 0.0 1033232
07:00−10e51190100 0.0 1034219
10:00−9ese61388100 0.0 1034271
13:00−8ese51287100 0.0 1034310
16:00−9e51087100 0.0 1034242
19:00−10ese51186100 0.0 1035212
22:00−11ese41086100 0.0 1034180
25 january, tue
tue2501:00−14e3392100 0.0 103538
04:00−14ese2690100 0.0 103480
07:00−16ese3794100 0.0 103481
10:00−13se41094100 0.0 1034146
13:00−10se5109294 0.0 1033198
16:00−10se49938 0.0 1032142
19:00−13se499675 0.0 1032110
22:00−14se489619 0.0 103195
26 january, wed
wed2601:00−15se479768 0.0 103183
04:00−15se489988 0.0 103094
07:00−15se489979 0.0 1029104
10:00−15sse499799 0.0 1029141
13:00−11sse489595 0.0 1028188
16:00−10se3796100 0.0 1028154
19:00−9se4996100 0.0 1027190
22:00−9se51096100 0.1 1026211